TimeMDT,TemperatureF,Dew PointF,Humidity,Sea Level PressureIn,VisibilityMPH,Wind Direction,Wind SpeedMPH,Gust SpeedMPH,PrecipitationIn,Events,Conditions,WindDirDegrees,DateUTC
12:12 AM,24.8,23.0,93,30.31,-9999.0,North,-9999.0,-,N/A,,Overcast,0,2013-05-09 06:12:00
12:32 AM,24.8,23.0,93,30.32,-9999.0,North,-9999.0,-,N/A,,Overcast,0,2013-05-09 06:32:00
12:52 AM,24.8,23.0,93,30.31,-9999.0,SW,12.7,-,N/A,,Overcast,230,2013-05-09 06:52:00
1:12 AM,24.8,23.0,93,30.31,-9999.0,SW,13.8,-,N/A,,Overcast,230,2013-05-09 07:12:00
1:32 AM,24.8,23.0,93,30.30,-9999.0,WSW,16.1,-,N/A,,Overcast,240,2013-05-09 07:32:00
1:52 AM,24.8,23.0,93,30.30,-9999.0,WSW,13.8,-,N/A,,Overcast,240,2013-05-09 07:52:00
2:12 AM,24.8,23.0,93,30.30,-9999.0,WSW,13.8,-,N/A,,Overcast,250,2013-05-09 08:12:00
2:32 AM,24.8,23.0,93,30.30,-9999.0,WSW,12.7,-,N/A,,Overcast,250,2013-05-09 08:32:00
2:52 AM,24.8,23.0,93,30.30,-9999.0,WSW,11.5,-,N/A,,Overcast,240,2013-05-09 08:52:00
3:12 AM,24.8,23.0,93,30.30,-9999.0,North,-9999.0,-,N/A,,Overcast,0,2013-05-09 09:12:00
3:32 AM,24.8,23.0,93,30.30,-9999.0,North,-9999.0,-,N/A,,Unknown,0,2013-05-09 09:32:00
3:52 AM,24.8,23.0,93,30.29,-9999.0,North,-9999.0,-,N/A,,Unknown,0,2013-05-09 09:52:00
4:12 AM,24.8,23.0,93,30.30,-9999.0,North,-9999.0,-,N/A,,Unknown,0,2013-05-09 10:12:00
4:32 AM,24.8,23.0,93,30.29,-9999.0,North,-9999.0,-,N/A,,Unknown,0,2013-05-09 10:32:00
4:52 AM,24.8,23.0,93,30.29,-9999.0,North,-9999.0,-,N/A,,Overcast,0,2013-05-09 10:52:00
5:52 AM,24.8,23.0,93,30.30,-9999.0,North,-9999.0,-,N/A,,Unknown,0,2013-05-09 11:52:00
6:12 AM,24.8,23.0,93,30.30,-9999.0,North,-9999.0,-,N/A,,Unknown,0,2013-05-09 12:12:00
6:32 AM,24.8,23.0,93,30.30,-9999.0,North,-9999.0,-,N/A,,Overcast,0,2013-05-09 12:32:00
6:52 AM,24.8,23.0,93,30.31,-9999.0,ENE,5.8,-,N/A,,Overcast,70,2013-05-09 12:52:00
7:12 AM,24.8,23.0,93,30.32,-9999.0,North,-9999.0,-,N/A,,Overcast,0,2013-05-09 13:12:00
7:32 AM,24.8,23.0,93,30.32,-9999.0,North,-9999.0,-,N/A,,Overcast,0,2013-05-09 13:32:00
8:12 AM,24.8,23.0,93,30.32,-9999.0,ENE,18.4,-,N/A,,Overcast,70,2013-05-09 14:12:00
8:52 AM,24.8,23.0,93,30.32,-9999.0,ENE,25.3,35.7,N/A,,Overcast,70,2013-05-09 14:52:00
9:32 AM,26.6,23.0,86,30.31,-9999.0,ENE,33.4,-,N/A,,Overcast,70,2013-05-09 15:32:00
9:52 AM,26.6,23.0,86,30.29,-9999.0,ENE,43.7,51.8,N/A,,Overcast,70,2013-05-09 15:52:00
10:12 AM,26.6,23.0,86,30.29,-9999.0,ENE,43.7,56.4,N/A,,Overcast,70,2013-05-09 16:12:00
11:12 AM,26.6,23.0,86,30.34,-9999.0,ENE,40.3,50.6,N/A,,Overcast,70,2013-05-09 17:12:00
11:32 AM,26.6,23.0,86,30.35,-9999.0,ENE,36.8,50.6,N/A,,Overcast,70,2013-05-09 17:32:00
11:52 AM,26.6,24.8,93,30.36,-9999.0,ENE,33.4,51.8,N/A,,Overcast,60,2013-05-09 17:52:00
12:12 PM,26.6,24.8,93,30.35,-9999.0,ENE,34.5,39.1,N/A,,Overcast,70,2013-05-09 18:12:00
12:32 PM,26.6,26.6,100,30.36,-9999.0,ENE,31.1,39.1,N/A,,Overcast,70,2013-05-09 18:32:00
12:52 PM,26.6,24.8,93,30.38,-9999.0,ENE,23.0,38.0,N/A,,Overcast,60,2013-05-09 18:52:00
1:12 PM,26.6,26.6,100,30.38,-9999.0,ENE,24.2,39.1,N/A,,Overcast,70,2013-05-09 19:12:00
1:32 PM,26.6,26.6,100,30.39,-9999.0,ENE,21.9,-,N/A,,Overcast,60,2013-05-09 19:32:00
1:52 PM,28.4,26.6,93,30.38,-9999.0,ENE,27.6,33.4,N/A,,Overcast,70,2013-05-09 19:52:00
2:12 PM,28.4,26.6,93,30.39,-9999.0,ENE,29.9,36.8,N/A,,Overcast,70,2013-05-09 20:12:00
2:32 PM,28.4,26.6,93,30.40,-9999.0,ENE,21.9,26.5,N/A,Thunderstorm,Thunderstorm,70,2013-05-09 20:32:00
2:52 PM,28.4,26.6,93,30.39,-9999.0,North,-9999.0,-,N/A,,Overcast,0,2013-05-09 20:52:00
3:12 PM,28.4,26.6,93,30.37,-9999.0,ENE,38.0,-,N/A,Thunderstorm,Thunderstorm,70,2013-05-09 21:12:00
3:32 PM,26.6,26.6,100,30.39,-9999.0,ENE,32.2,46.0,N/A,,Overcast,70,2013-05-09 21:32:00
3:52 PM,26.6,26.6,100,30.39,-9999.0,ENE,35.7,43.7,N/A,,Overcast,70,2013-05-09 21:52:00
4:12 PM,28.4,26.6,93,30.39,-9999.0,North,-9999.0,-,N/A,,Overcast,0,2013-05-09 22:12:00
4:32 PM,28.4,26.6,93,30.39,-9999.0,ENE,26.5,35.7,N/A,,Overcast,70,2013-05-09 22:32:00
4:52 PM,28.4,26.6,93,30.40,-9999.0,ENE,29.9,35.7,N/A,Thunderstorm,Thunderstorm,70,2013-05-09 22:52:00
5:12 PM,28.4,26.6,93,30.39,-9999.0,ENE,28.8,36.8,N/A,,Overcast,70,2013-05-09 23:12:00
5:32 PM,28.4,26.6,93,30.38,-9999.0,ENE,34.5,40.3,N/A,Thunderstorm,Thunderstorm,70,2013-05-09 23:32:00
5:52 PM,28.4,26.6,93,30.39,-9999.0,ENE,31.1,42.6,N/A,,Overcast,70,2013-05-09 23:52:00
6:12 PM,28.4,26.6,93,30.37,-9999.0,North,-9999.0,-,N/A,,Overcast,0,2013-05-10 00:12:00
6:32 PM,26.6,24.8,93,30.38,-9999.0,ENE,28.8,46.0,N/A,,Overcast,70,2013-05-10 00:32:00
6:52 PM,26.6,24.8,93,30.39,-9999.0,North,-9999.0,-,N/A,,Overcast,0,2013-05-10 00:52:00
7:12 PM,26.6,24.8,93,30.38,-9999.0,North,-9999.0,-,N/A,,Overcast,0,2013-05-10 01:12:00
7:32 PM,26.6,24.8,93,30.38,-9999.0,North,-9999.0,-,N/A,,Mostly Cloudy,0,2013-05-10 01:32:00
7:52 PM,26.6,24.8,93,30.37,-9999.0,ENE,36.8,-,N/A,,Overcast,70,2013-05-10 01:52:00
8:12 PM,26.6,24.8,93,30.39,-9999.0,ENE,32.2,41.4,N/A,,Overcast,70,2013-05-10 02:12:00
8:32 PM,26.6,24.8,93,30.40,-9999.0,North,-9999.0,-,N/A,,Overcast,0,2013-05-10 02:32:00
8:52 PM,26.6,24.8,93,30.40,-9999.0,North,-9999.0,-,N/A,,Overcast,0,2013-05-10 02:52:00
9:12 PM,26.6,24.8,93,30.41,-9999.0,North,-9999.0,-,N/A,,Overcast,0,2013-05-10 03:12:00
9:52 PM,26.6,24.8,93,30.45,-9999.0,North,-9999.0,-,N/A,,Overcast,0,2013-05-10 03:52:00
10:12 PM,26.6,24.8,93,30.45,-9999.0,North,-9999.0,-,N/A,,Overcast,0,2013-05-10 04:12:00
10:32 PM,26.6,24.8,93,30.45,-9999.0,North,-9999.0,-,N/A,,Overcast,0,2013-05-10 04:32:00
10:52 PM,26.6,24.8,93,30.45,-9999.0,North,-9999.0,-,N/A,,Overcast,0,2013-05-10 04:52:00
11:12 PM,26.6,24.8,93,30.47,-9999.0,North,-9999.0,-,N/A,,Overcast,0,2013-05-10 05:12:00